Location: Unspecified
(43.4354°N, 0.0000°E)
Time: 17:58:46
(UTC+00:00)

A-11 Canister half - All Passes

Search period start: 20 June 2019 00:00
Search period end: 30 June 2019 00:00
Orbit: 1516 x 1684 km, 47.2° (Epoch: 19 June)

Date Brightness Start Highest point End Pass type
(mag) Time Alt. Az. Time Alt. Az. Time Alt. Az.
20 Jun - 08:13:36 10° SE 08:17:11 12° ESE 08:20:44 10° E daylight
20 Jun - 10:11:00 10° SSW 10:20:21 47° SE 10:29:26 10° ENE daylight
20 Jun - 12:14:59 10° WSW 12:24:57 85° NNW 12:34:33 10° ENE daylight
20 Jun - 14:20:47 10° W 14:30:32 72° N 14:39:56 10° E daylight
20 Jun - 16:26:14 10° WNW 16:35:46 77° SSW 16:45:02 10° SE daylight
20 Jun - 18:31:57 10° WNW 18:39:37 29° SW 18:47:10 10° S daylight
21 Jun - 07:51:55 10° SE 07:54:23 11° ESE 07:56:50 10° ESE daylight
21 Jun - 09:48:12 10° SSW 09:57:28 45° SE 10:06:30 10° ENE daylight
21 Jun - 11:52:01 10° WSW 12:02:00 87° NNW 12:11:38 10° ENE daylight
21 Jun - 13:57:47 10° W 14:07:34 71° N 14:16:59 10° E daylight
21 Jun - 16:03:16 10° WNW 16:12:52 80° SSW 16:22:10 10° ESE daylight
21 Jun - 18:08:55 10° WNW 18:16:47 31° SW 18:24:33 10° S daylight
22 Jun - 09:25:25 10° SSW 09:34:36 42° SE 09:43:32 10° ENE daylight
22 Jun - 11:29:02 10° WSW 11:39:03 90° NNW 11:48:44 10° ENE daylight
22 Jun - 13:34:47 10° W 13:44:36 71° N 13:54:03 10° E daylight
22 Jun - 15:40:19 10° WNW 15:49:58 83° SSW 15:59:17 10° ESE daylight
22 Jun - 17:45:53 10° WNW 17:53:58 33° SW 18:01:55 10° SSE daylight
23 Jun - 09:02:40 10° SSW 09:11:44 40° SE 09:20:34 10° ENE daylight
23 Jun - 11:06:05 10° WSW 11:16:07 88° SSE 11:25:49 10° ENE daylight
23 Jun - 13:11:47 10° W 13:21:38 71° N 13:31:07 10° E daylight
23 Jun - 15:17:21 10° WNW 15:27:03 85° SSW 15:36:24 10° ESE daylight
23 Jun - 17:22:51 10° WNW 17:31:09 36° SW 17:39:16 10° SSE daylight
24 Jun - 08:39:55 10° SSW 08:48:52 38° SE 08:57:35 10° ENE daylight
24 Jun - 10:43:07 10° WSW 10:53:11 86° SSE 11:02:53 10° ENE daylight
24 Jun - 12:48:47 10° W 12:58:39 71° N 13:08:10 10° E daylight
24 Jun - 14:54:23 10° WNW 15:04:08 88° SSW 15:13:31 10° ESE daylight
24 Jun - 16:59:51 10° WNW 17:08:19 38° SW 17:16:36 10° SSE daylight
25 Jun - 08:17:12 10° SSW 08:26:00 36° SE 08:34:35 10° ENE daylight
25 Jun - 10:20:10 10° WSW 10:30:14 83° SSE 10:39:58 10° ENE daylight
25 Jun - 12:25:47 10° W 12:35:41 71° N 12:45:14 10° E daylight
25 Jun - 14:31:25 10° WNW 14:41:12 90° NW 14:50:37 10° ESE daylight
25 Jun - 16:36:51 10° WNW 16:45:30 40° SW 16:53:54 10° SSE daylight
26 Jun - 07:54:30 10° SSW 08:03:08 34° SE 08:11:35 10° ENE daylight
26 Jun - 09:57:13 10° WSW 10:07:18 81° SSE 10:17:03 10° ENE daylight
26 Jun - 12:02:46 10° W 12:12:43 71° N 12:22:17 10° E daylight
26 Jun - 14:08:28 10° WNW 14:18:16 88° NNE 14:27:43 10° ESE daylight
26 Jun - 16:13:51 10° WNW 16:22:39 43° SW 16:31:12 10° SSE daylight
27 Jun - 07:31:49 10° S 07:40:16 32° SE 07:48:34 10° ENE daylight
27 Jun - 09:34:17 10° SW 09:44:21 78° SSE 09:54:08 10° ENE daylight
27 Jun - 11:39:46 10° W 11:49:44 72° N 11:59:21 10° E daylight
27 Jun - 13:45:29 10° WNW 13:55:20 86° NNE 14:04:49 10° ESE daylight
27 Jun - 15:50:52 10° WNW 15:59:48 45° SW 16:08:28 10° SSE daylight
27 Jun - 18:00:35 10° WSW 18:02:42 11° WSW 18:04:48 10° SW daylight
28 Jun - 07:09:10 10° S 07:17:25 30° SE 07:25:32 10° ENE daylight
28 Jun - 09:11:22 10° SW 09:21:26 76° SSE 09:31:12 10° ENE daylight
28 Jun - 11:16:45 10° W 11:26:45 72° N 11:36:24 10° E daylight
28 Jun - 13:22:30 10° WNW 13:32:24 84° NNE 13:41:54 10° ESE daylight
28 Jun - 15:27:52 10° WNW 15:36:57 48° SW 15:45:44 10° SSE daylight
28 Jun - 17:36:35 10° W 17:39:55 12° WSW 17:43:14 10° SW daylight
29 Jun - 06:46:32 10° S 06:54:34 28° SE 07:02:28 10° ENE daylight
29 Jun - 08:48:27 10° SW 08:58:30 73° SSE 09:08:17 10° ENE daylight
29 Jun - 10:53:45 10° W 11:03:46 73° N 11:13:29 10° ENE daylight
29 Jun - 12:59:32 10° WNW 13:09:27 82° NNE 13:18:58 10° ESE daylight
29 Jun - 15:04:53 10° WNW 15:14:05 51° SW 15:22:59 10° SSE daylight
29 Jun - 17:12:58 10° W 17:17:09 14° WSW 17:21:17 10° SSW daylight
